Location: Stone Trail Observatory
(44.2408°N, 105.6081°W)
Time: 20:35:08
(UTC-06:00)

Iridium 6 - Visible Passes

Search period start: 28 July 2015 00:00
Search period end: 07 August 2015 00:00
Orbit: 776 x 779 km, 86.4° (Epoch: 28 July)

Date Brightness Start Highest point End Pass type
(mag) Time Alt. Az. Time Alt. Az. Time Alt. Az.
28 Jul 5.5 21:00:13 10° S 21:05:23 70° E 21:10:36 10° N visible
28 Jul 8.2 22:43:40 10° WSW 22:46:47 15° WNW 22:49:41 10° NW visible
29 Jul 7.6 22:08:27 10° SW 22:12:51 26° WNW 22:17:11 10° NNW visible
30 Jul 6.6 21:34:05 10° SSW 21:39:05 46° W 21:44:06 10° N visible
31 Jul 5.7 21:00:15 10° S 21:05:28 83° W 21:10:43 10° N visible
31 Jul 8.6 22:46:00 10° W 22:47:13 11° WNW 22:48:06 10° WNW visible
01 Aug 8.2 22:09:26 10° WSW 22:13:11 19° WNW 22:16:46 10° NNW visible
02 Aug 7.4 21:34:36 10° SW 21:39:18 33° WNW 21:43:58 10° NNW visible
03 Aug 6.3 21:00:28 10° SSW 21:05:35 58° W 21:10:46 10° N visible
04 Aug 8.5 22:10:53 10° W 22:13:34 13° WNW 22:15:58 10° NW visible
05 Aug 8.0 21:35:23 10° SW 21:39:35 24° WNW 21:43:42 10° NNW visible
06 Aug 7.0 21:00:52 10° SSW 21:05:46 41° W 21:10:42 10° N visible
